Location: Poprad
(49.0500°N, 20.3000°E)
Time: 20:20:41
(UTC+02:00)

Gurwin Techsat 1B - Visible Passes

Search period start: 22 April 2024 00:00
Search period end: 02 May 2024 00:00
Orbit: 811 x 812 km, 98.9° (Epoch: 21 April)

Date Brightness Start Highest point End Pass type
(mag) Time Alt. Az. Time Alt. Az. Time Alt. Az.
22 Apr 10.7 03:12:43 10° NE 03:16:51 23° E 03:20:58 10° SE visible
22 Apr 8.8 04:51:54 10° N 04:57:09 60° WNW 05:02:21 10° SSW visible
23 Apr 11.1 02:50:28 10° NE 02:53:21 15° E 02:56:13 10° ESE visible
23 Apr 8.7 04:28:38 10° NNE 04:33:59 90° WNW 04:39:18 10° SSW visible
24 Apr 9.1 04:05:28 10° NNE 04:10:45 60° ESE 04:16:00 10° S visible
25 Apr 9.9 03:42:27 10° NNE 03:47:26 39° E 03:52:23 10° SSE visible
26 Apr 10.5 03:19:39 10° NE 03:24:02 25° E 03:28:24 10° SSE visible
27 Apr 11.1 02:57:13 10° NE 03:00:33 17° E 03:03:52 10° SE visible
27 Apr 8.6 04:35:44 10° NNE 04:41:05 80° WNW 04:46:24 10° SSW visible
28 Apr 11.5 02:36:26 10° ENE 02:36:59 10° E 02:37:30 10° E visible
28 Apr 9.0 04:12:32 10° NNE 04:17:52 68° ESE 04:23:09 10° S visible
29 Apr 9.7 03:49:28 10° NNE 03:54:34 44° E 03:59:37 10° S visible
30 Apr 10.4 03:26:36 10° NE 03:31:11 29° E 03:35:45 10° SSE visible
01 May 11.0 03:04:01 10° NE 03:07:43 19° E 03:11:25 10° SE visible
